Location: Blackfoot
(53.5367°N, 112.7800°W)
Time: 11:05:41
(UTC-07:00)

Amateur Radio Satellites - All Passes

Search period start: 01 March 2017 10:35
Search period end: 02 March 2017 10:35
Location: Blackfoot, 53.5367°N, 112.7800°W

Satellite Date Start Highest point End Downlink Frequencies (MHz)
Time Altitude Azimuth
POLYITAN 1 01 Mar 10:38:26 10:42:30 45° 67° (ENE) 10:46:37 437.675
Tancredo 1 01 Mar 10:39:55 10:43:08 58° 187° (S) 10:46:19 437.200
QB50P2 01 Mar 10:41:33 10:45:40 51° 69° (ENE) 10:49:51 145.880/145.840
HO-68 01 Mar 10:41:40 10:47:22 27° 313° (NW) 10:53:04 435.675
BUGSAT 1 01 Mar 10:43:03 10:46:02 20° 58° (ENE) 10:49:02 437.445
ESTCUBE 1 01 Mar 10:48:29 10:50:50 14° 86° (E) 10:53:09 437.505/2401.250
AAUSAT CUBESAT 2 01 Mar 10:50:08 10:52:21 14° 305° (NW) 10:54:35 437.432
AO-7 01 Mar 10:51:51 10:55:41 14° 15° (NNE) 10:59:31 .
AIST 2D 01 Mar 11:00:32 11:04:06 76° 257° (WSW) 11:07:42 435.315
LO-87 01 Mar 11:00:36 11:03:42 26° 95° (E) 11:06:49 145.935 - 145.965
AO-85 01 Mar 11:01:56 11:05:51 58° 40° (NE) 11:09:43 145.980
BEESAT 3 01 Mar 11:03:52 11:06:49 19° 15° (NNE) 11:09:47 437.485
Oscar 19 01 Mar 11:06:13 11:09:27 17° 51° (NE) 11:12:42 437.125/150
YUBILEINY 01 Mar 11:16:57 11:25:45 70° 285° (WNW) 11:34:33 435.215
AO-73 01 Mar 11:19:03 11:22:05 18° 304° (NW) 11:25:04 145.935
Oscar 11 01 Mar 11:19:56 11:22:52 18° 303° (WNW) 11:25:47 .
DUCHIFAT 1 01 Mar 11:38:42 11:42:53 61° 258° (WSW) 11:47:07 145.980
DELFI C3 01 Mar 11:41:12 11:44:19 23° 298° (WNW) 11:47:24 145.870
BEESAT 2 01 Mar 11:52:22 11:55:30 21° 18° (NNE) 11:58:37 435.950
EO-79 01 Mar 11:55:21 11:59:18 37° 263° (W) 12:03:19 145.935-145.965
ISS 01 Mar 12:02:10 12:05:10 32° 204° (SSW) 12:08:09 437.550
SPROUT 01 Mar 12:02:42 12:05:58 21° 91° (E) 12:09:13 437.525
DX 1 01 Mar 12:06:40 12:08:39 13° 86° (E) 12:10:38 434.975-435.025
NANOSAT C BR1 01 Mar 12:09:41 12:13:25 30° 265° (W) 12:17:12 145.865
POLYITAN 1 01 Mar 12:14:55 12:18:30 26° 267° (W) 12:22:06 437.675
FO-29 01 Mar 12:15:54 12:21:22 21° 279° (W) 12:27:03 435.910
Tancredo 1 01 Mar 12:16:16 12:19:03 26° 207° (SSW) 12:21:48 437.200
BUGSAT 1 01 Mar 12:16:55 12:21:00 64° 258° (WSW) 12:25:10 437.445
QB50P2 01 Mar 12:18:21 12:21:45 23° 268° (W) 12:25:11 145.880/145.840
ESTCUBE 1 01 Mar 12:23:48 12:28:19 90° 131° (SE) 12:32:48 437.505/2401.250
Gurwin Techsat 1B 01 Mar 12:26:05 12:30:57 38° 62° (ENE) 12:35:50 435.225
VELOX 1 01 Mar 12:28:59 12:33:09 39° 98° (E) 12:37:20 145.980
HO-68 01 Mar 12:31:45 12:32:48 10° 338° (NNW) 12:33:51 435.675
LO-87 01 Mar 12:33:57 12:37:12 32° 293° (WNW) 12:40:27 145.935 - 145.965
AO-7 01 Mar 12:39:06 12:45:50 29° 41° (NE) 12:52:34 .
BEESAT 3 01 Mar 12:41:23 12:45:18 47° 38° (NE) 12:49:12 437.485
50 SAT 01 Mar 12:42:25 12:45:40 35° 98° (E) 12:48:52 437.505
AO-85 01 Mar 12:42:46 12:45:57 24° 241° (WSW) 12:49:09 145.980
Oscar 19 01 Mar 12:42:53 12:48:01 76° 71° (ENE) 12:53:10 437.125/150
YUBILEINY 01 Mar 13:17:51 13:24:27 23° 312° (NW) 13:31:05 435.215
ITAMSAT 1 01 Mar 13:27:41 13:32:08 29° 58° (ENE) 13:36:37 435.822/435.867
BEESAT 2 01 Mar 13:30:01 13:34:02 57° 40° (NE) 13:38:02 435.950
SPROUT 01 Mar 13:37:59 13:42:14 58° 290° (WNW) 13:46:28 437.525
DX 1 01 Mar 13:41:09 13:45:32 86° 105° (ESE) 13:49:55 434.975-435.025
UKube-1 01 Mar 13:43:43 13:48:03 69° 103° (ESE) 13:52:22 .
ESTCUBE 1 01 Mar 14:01:42 14:04:31 17° 306° (NW) 14:07:21 437.505/2401.250
ITUPSAT 1 01 Mar 14:02:31 14:04:31 12° 84° (E) 14:06:31 437.325
BEESAT 01 Mar 14:05:36 14:07:58 13° 85° (E) 14:10:19 436.000
VELOX 1 01 Mar 14:05:38 14:09:33 32° 297° (WNW) 14:13:29 145.980
Gurwin Techsat 1B 01 Mar 14:05:48 14:10:52 44° 262° (W) 14:15:58 435.225
50 SAT 01 Mar 14:15:51 14:18:39 23° 297° (WNW) 14:21:27 437.505
BEESAT 3 01 Mar 14:19:11 14:22:49 32° 238° (WSW) 14:26:24 437.485
Oscar 19 01 Mar 14:24:10 14:27:56 20° 271° (W) 14:31:42 437.125/150
AO-7 01 Mar 14:29:12 14:37:33 78° 64° (ENE) 14:45:54 .
ITAMSAT 1 01 Mar 15:06:12 15:11:20 58° 258° (WSW) 15:16:33 435.822/435.867
BEESAT 2 01 Mar 15:08:10 15:11:36 26° 240° (WSW) 15:14:59 435.950
SPROUT 01 Mar 15:16:07 15:17:18 11° 310° (NW) 15:18:28 437.525
DX 1 01 Mar 15:18:23 15:21:11 17° 305° (NW) 15:23:58 434.975-435.025
PCSat 01 Mar 15:19:01 15:23:40 30° 113° (ESE) 15:28:20 145.827
UKube-1 01 Mar 15:20:33 15:23:41 20° 303° (WNW) 15:26:48 .
MOZHAYETS 4 01 Mar 15:20:36 15:24:26 25° 92° (E) 15:28:14
ITUPSAT 1 01 Mar 15:38:23 15:43:14 74° 105° (ESE) 15:48:01 437.325
BEESAT 01 Mar 15:41:43 15:46:33 80° 104° (ESE) 15:51:20 436.000
RS-15 01 Mar 15:52:20 16:01:55 29° 102° (ESE) 16:11:40 29.354- 29.394
HO-68 01 Mar 15:58:38 16:02:00 14° 31° (NNE) 16:05:22 435.675
LilacSat-2 01 Mar 16:05:31 16:07:19 13° 55° (NE) 16:09:07 437.200
NO-84 01 Mar 16:05:44 16:08:02 18° 136° (SE) 16:10:29 435.350 FM
AO-7 01 Mar 16:23:48 16:31:07 33° 267° (W) 16:38:27 .
DOVE 4 01 Mar 16:25:25 16:28:40 22° 59° (ENE) 16:32:01 437.250
CUBESAT XI-V 01 Mar 16:32:55 16:36:38 24° 91° (E) 16:40:21 437.345
KAITUO 1B 01 Mar 16:41:28 16:44:22 21° 61° (ENE) 16:47:17 145.475/437.950
CUTE-I 01 Mar 16:49:07 16:54:02 38° 62° (ENE) 16:58:59 437.470
ITAMSAT 1 01 Mar 16:51:05 16:51:58 10° 279° (W) 16:52:50 435.822/435.867
KKS-1 01 Mar 16:52:48 16:57:09 47° 100° (E) 17:01:29 437.445
XW-2F 01 Mar 16:53:48 16:57:12 30° 65° (ENE) 17:00:36 145.980 - 146.000
MOZHAYETS 4 01 Mar 16:57:23 17:01:52 51° 292° (WNW) 17:06:19
XW-2D 01 Mar 17:01:17 17:04:51 37° 67° (ENE) 17:08:26 145.860 - 145.880
PCSat 01 Mar 17:01:20 17:06:44 66° 314° (NW) 17:12:11 145.827
XW-2B 01 Mar 17:06:24 17:10:01 40° 68° (ENE) 17:13:40 145.730 - 145.750
NUDT-PHONESAT 01 Mar 17:09:39 17:13:09 36° 67° (ENE) 17:16:39 437.300
STARS 01 Mar 17:13:16 17:17:24 37° 97° (E) 17:21:32 437.465
XW-2C 01 Mar 17:15:07 17:18:51 49° 70° (ENE) 17:22:37 145.795 - 145.815
ITUPSAT 1 01 Mar 17:16:59 17:20:36 22° 304° (NW) 17:24:11 437.325
BEESAT 01 Mar 17:20:21 17:23:49 20° 305° (NW) 17:27:15 436.000
SEEDS 01 Mar 17:28:07 17:28:44 10° 50° (NE) 17:29:20 437.485
LilacSat-2 01 Mar 17:37:06 17:41:00 85° 74° (ENE) 17:44:55 437.200
M-CUBED/EXP-1 PRIME 01 Mar 17:38:09 17:41:12 22° 100° (E) 17:44:24 437.505
HO-68 01 Mar 17:41:25 17:47:54 39° 55° (NE) 17:54:24 435.675
NO-84 01 Mar 17:41:49 17:45:09 71° 157° (SSE) 17:48:49 435.350 FM
CUBEBUG 2 01 Mar 17:47:31 17:49:44 13° 51° (NE) 17:51:59 437.445
RS-15 01 Mar 18:00:31 18:12:35 79° 128° (SE) 18:24:59 29.354- 29.394
DOVE 4 01 Mar 18:01:58 18:06:04 55° 260° (W) 18:10:20 437.250
CUBESAT XI-V 01 Mar 18:09:50 18:14:20 54° 291° (WNW) 18:18:49 437.345
CUTE 1.7 + AOD 2 01 Mar 18:12:05 18:15:50 31° 64° (ENE) 18:19:35 437.475
UWE-3 01 Mar 18:14:02 18:16:38 15° 52° (NE) 18:19:14 435.000/436.395/437.385
KAITUO 1B 01 Mar 18:14:26 18:18:08 49° 261° (W) 18:21:53 145.475/437.950
ZACube-1 01 Mar 18:24:42 18:26:33 12° 50° (NE) 18:28:26 437.345
XW-2F 01 Mar 18:27:51 18:31:19 32° 264° (W) 18:34:50 145.980 - 146.000
CUTE-I 01 Mar 18:28:57 18:34:03 44° 262° (W) 18:39:12 437.470
KKS-1 01 Mar 18:29:44 18:33:33 28° 299° (WNW) 18:37:21 437.445
AAUSAT CUBESAT 2 01 Mar 18:35:11 18:38:16 21° 60° (ENE) 18:41:21 437.432
XW-2D 01 Mar 18:35:52 18:39:09 26° 266° (W) 18:42:27 145.860 - 145.880
MOZHAYETS 4 01 Mar 18:36:58 18:38:02 11° 312° (NW) 18:39:07
XW-2A 01 Mar 18:38:07 18:41:32 68° 72° (ENE) 18:44:59 145.665 - 145.685
XW-2B 01 Mar 18:41:12 18:44:22 24° 267° (W) 18:47:34 145.730 - 145.750
NUDT-PHONESAT 01 Mar 18:43:59 18:47:11 25° 266° (W) 18:50:23 437.300
PCSat 01 Mar 18:46:35 18:51:06 26° 338° (NNW) 18:55:38 145.827
STARS 01 Mar 18:49:43 18:53:44 34° 296° (WNW) 18:57:44 437.465
XW-2C 01 Mar 18:50:27 18:53:20 20° 269° (W) 18:56:13 145.795 - 145.815
STRAND 1 01 Mar 18:56:22 19:00:14 21° 89° (E) 19:04:03 437.568
SEEDS 01 Mar 18:59:26 19:03:34 56° 70° (ENE) 19:07:42 437.485
AO-73 01 Mar 19:08:00 19:11:36 24° 59° (ENE) 19:15:14 145.935
Oscar 11 01 Mar 19:08:50 19:12:04 21° 58° (ENE) 19:15:18 .
M-CUBED/EXP-1 PRIME 01 Mar 19:12:11 19:15:51 49° 297° (WNW) 19:19:48 437.505
LilacSat-2 01 Mar 19:14:15 19:15:51 12° 274° (W) 19:17:28 437.200
NO-84 01 Mar 19:19:22 19:22:53 68° 359° (N) 19:26:46 435.350 FM
CUBEBUG 2 01 Mar 19:20:57 19:25:29 65° 71° (ENE) 19:30:10 437.445
YUBILEINY 01 Mar 19:22:30 19:29:43 27° 53° (NE) 19:36:50 435.215
DELFI C3 01 Mar 19:26:08 19:27:00 11° 52° (NE) 19:27:53 145.870
HO-68 01 Mar 19:28:17 19:35:23 63° 257° (WSW) 19:42:31 435.675
CUTE 1.7 + AOD 2 01 Mar 19:47:37 19:51:36 38° 263° (W) 19:55:37 437.475
UWE-3 01 Mar 19:47:46 19:52:19 76° 72° (ENE) 19:57:00 435.000/436.395/437.385
CUBESAT XI-V 01 Mar 19:49:24 19:50:46 11° 311° (NW) 19:52:07 437.345
ZACube-1 01 Mar 19:57:29 20:01:57 61° 71° (ENE) 20:06:31 437.345
AAUSAT CUBESAT 2 01 Mar 20:09:17 20:13:24 59° 259° (W) 20:17:30 437.432
XW-2A 01 Mar 20:13:19 20:14:45 12° 272° (W) 20:16:11 145.665 - 145.685
RS-15 01 Mar 20:14:02 20:26:07 58° 338° (NNW) 20:38:20 29.354- 29.394
PCSat 01 Mar 20:32:21 20:36:18 20° 4° (N) 20:40:15 145.827
STRAND 1 01 Mar 20:34:48 20:39:58 74° 289° (WNW) 20:45:06 437.568
SEEDS 01 Mar 20:36:26 20:39:35 20° 270° (W) 20:42:46 437.485
AO-73 01 Mar 20:43:00 20:47:30 60° 259° (W) 20:52:04 145.935
Oscar 11 01 Mar 20:43:29 20:47:49 65° 258° (WSW) 20:52:10 .
NO-84 01 Mar 20:56:58 21:00:41 81° 199° (SSW) 21:04:46 435.350 FM
DELFI C3 01 Mar 20:57:08 21:01:03 65° 72° (ENE) 21:04:59 145.870
CUBEBUG 2 01 Mar 20:59:08 21:02:34 20° 271° (W) 21:06:04 437.445
YUBILEINY 01 Mar 21:19:10 21:27:58 85° 79° (ENE) 21:36:42 435.215
SO-50 01 Mar 21:19:47 21:23:43 28° 119° (ESE) 21:27:38 436.795
HO-68 01 Mar 21:20:48 21:24:38 15° 279° (W) 21:28:27 435.675
UWE-3 01 Mar 21:26:15 21:29:20 18° 273° (W) 21:32:28 435.000/436.395/437.385
FO-29 01 Mar 21:32:13 21:36:45 17° 77° (ENE) 21:41:02 435.910
ZACube-1 01 Mar 21:35:08 21:38:37 21° 270° (W) 21:42:10 437.345
LO-87 01 Mar 21:42:47 21:45:54 29° 66° (ENE) 21:49:02 145.935 - 145.965
O/OREOS (USA 219) 01 Mar 21:51:45 21:55:36 29° 107° (ESE) 21:59:31 437.305
ESTCUBE 1 01 Mar 21:53:24 21:57:14 28° 61° (ENE) 22:01:03 437.505/2401.250
PRISM 01 Mar 21:53:48 21:57:44 43° 99° (E) 22:01:38 437.425
VELOX 1 01 Mar 21:58:23 22:00:40 14° 52° (NE) 22:02:59 145.980
TIGRISAT 01 Mar 22:00:13 22:04:14 27° 92° (E) 22:08:11 435.000
UNISAT 6 01 Mar 22:01:28 22:05:35 29° 93° (E) 22:09:39 437.425
STRAND 1 01 Mar 22:15:09 22:18:22 17° 310° (NW) 22:21:34 437.568
PCSat 01 Mar 22:16:27 22:21:20 32° 29° (NNE) 22:26:11 145.827
RS-15 01 Mar 22:29:19 22:41:22 51° 10° (N) 22:53:14 29.354- 29.394
DELFI C3 01 Mar 22:33:49 22:36:16 16° 271° (W) 22:38:45 145.870
NO-84 01 Mar 22:34:45 22:38:06 27° 218° (SW) 22:41:39 435.350 FM
SO-50 01 Mar 22:59:17 23:03:54 65° 319° (NW) 23:08:29 436.795
SPROUT 01 Mar 23:01:48 23:05:39 34° 65° (ENE) 23:09:34 437.525
DX 1 01 Mar 23:07:27 23:11:01 26° 60° (ENE) 23:14:36 434.975-435.025
UKube-1 01 Mar 23:09:30 23:12:44 21° 58° (ENE) 23:15:59 .
FO-29 01 Mar 23:15:45 23:23:25 66° 101° (E) 23:30:19 435.910
LO-87 01 Mar 23:16:16 23:19:22 28° 265° (W) 23:22:29 145.935 - 145.965
YUBILEINY 01 Mar 23:16:50 23:23:48 28° 282° (WNW) 23:30:45 435.215
DUCHIFAT 1 01 Mar 23:17:21 23:19:47 15° 87° (E) 23:22:13 145.980
50 SAT 01 Mar 23:22:12 23:25:28 39° 68° (ENE) 23:28:45 437.505
PRISM 01 Mar 23:29:27 23:32:51 26° 299° (WNW) 23:36:16 437.425
ESTCUBE 1 01 Mar 23:29:30 23:33:52 47° 261° (W) 23:38:14 437.505/2401.250
O/OREOS (USA 219) 01 Mar 23:30:29 23:34:50 47° 307° (NW) 23:39:15 437.305
VELOX 1 01 Mar 23:32:03 23:36:27 76° 71° (ENE) 23:40:51 145.980
EO-79 01 Mar 23:33:33 23:37:03 24° 92° (E) 23:40:31 145.935-145.965
TIGRISAT 01 Mar 23:36:36 23:41:10 50° 292° (WNW) 23:45:40 435.000
UNISAT 6 01 Mar 23:37:58 23:42:29 46° 293° (WNW) 23:46:56 437.425
NANOSAT C BR1 01 Mar 23:47:03 23:50:48 29° 94° (E) 23:54:32 145.865
POLYITAN 1 01 Mar 23:52:27 23:56:26 34° 96° (E) 00:00:21 437.675
AIST 2D 01 Mar 23:52:42 23:56:13 54° 100° (E) 23:59:41 435.315
BUGSAT 1 01 Mar 23:53:36 23:55:36 13° 86° (E) 23:57:38 437.445
QB50P2 01 Mar 23:55:37 23:59:41 39° 98° (E) 00:03:42 145.880/145.840
PCSat 01 Mar 23:59:51 00:05:19 84° 234° (SW) 00:10:46 145.827
SPROUT 02 Mar 00:37:42 00:41:35 34° 264° (W) 00:45:32 437.525
SO-50 02 Mar 00:41:18 00:45:09 25° 342° (NNW) 00:48:57 436.795
DX 1 02 Mar 00:42:47 00:47:00 49° 260° (W) 00:51:14 434.975-435.025
RS-15 02 Mar 00:43:15 00:55:45 80° 42° (NE) 01:07:51 29.354- 29.394
UKube-1 02 Mar 00:44:08 00:48:24 63° 257° (WSW) 00:52:43 .
Oscar 19 02 Mar 00:48:55 00:52:09 17° 87° (E) 00:55:21 437.125/150
DUCHIFAT 1 02 Mar 00:51:44 00:56:02 81° 288° (WNW) 01:00:18 145.980
MOZHAYETS 4 02 Mar 00:55:34 00:56:29 11° 47° (NE) 00:57:24
50 SAT 02 Mar 00:56:05 00:58:45 20° 267° (W) 01:01:25 437.505
FO-29 02 Mar 01:01:05 01:08:03 39° 304° (NW) 01:14:28 435.910
EO-79 02 Mar 01:08:54 01:13:04 49° 292° (WNW) 01:17:12 145.935-145.965
VELOX 1 02 Mar 01:10:43 01:13:27 16° 272° (W) 01:16:12 145.980
O/OREOS (USA 219) 02 Mar 01:13:02 01:15:25 14° 331° (NNW) 01:17:47 437.305
ITUPSAT 1 02 Mar 01:14:19 01:18:30 31° 61° (ENE) 01:22:43 437.325
TIGRISAT 02 Mar 01:15:36 01:16:49 11° 313° (NW) 01:18:02 435.000
BEESAT 02 Mar 01:17:15 01:21:29 32° 62° (ENE) 01:25:45 436.000
UNISAT 6 02 Mar 01:17:37 01:18:06 10° 314° (NW) 01:18:36 437.425
NANOSAT C BR1 02 Mar 01:22:37 01:26:39 40° 294° (WNW) 01:30:39 145.865
AIST 2D 02 Mar 01:26:42 01:29:07 17° 300° (WNW) 01:31:30 435.315
BUGSAT 1 02 Mar 01:27:20 01:31:38 89° 130° (SE) 01:35:53 437.445
POLYITAN 1 02 Mar 01:28:18 01:32:13 34° 296° (WNW) 01:36:06 437.675
QB50P2 02 Mar 01:31:37 01:35:24 31° 297° (WNW) 01:39:09 145.880/145.840
PCSat 02 Mar 01:44:20 01:47:59 19° 253° (WSW) 01:51:37 145.827
Gurwin Techsat 1B 02 Mar 02:15:00 02:20:09 46° 99° (E) 02:25:16 435.225
KKS-1 02 Mar 02:22:19 02:25:12 17° 54° (NE) 02:28:04 437.445
SO-50 02 Mar 02:23:28 02:26:58 21° 7° (N) 02:30:28 436.795
AO-7 02 Mar 02:25:07 02:29:52 16° 82° (E) 02:34:36 .
Oscar 19 02 Mar 02:27:03 02:32:13 89° 99° (E) 02:37:22 437.125/150
MOZHAYETS 4 02 Mar 02:28:09 02:32:38 49° 68° (ENE) 02:37:08
DUCHIFAT 1 02 Mar 02:28:46 02:31:04 14° 306° (NW) 02:33:20 145.980
STARS 02 Mar 02:42:12 02:44:23 14° 51° (NE) 02:46:35 437.465
FO-29 02 Mar 02:47:19 02:51:02 14° 327° (NNW) 02:54:39 435.910
ITUPSAT 1 02 Mar 02:51:31 02:56:11 48° 260° (W) 03:00:53 437.325
BEESAT 02 Mar 02:54:34 02:59:10 44° 261° (W) 03:03:47 436.000
RS-15 02 Mar 02:56:15 03:07:32 45° 249° (WSW) 03:18:25 29.354- 29.394
M-CUBED/EXP-1 PRIME 02 Mar 02:58:43 02:59:36 11° 46° (NE) 03:00:30 437.505
AO-85 02 Mar 03:03:01 03:06:11 20° 117° (ESE) 03:09:13 145.980
BUGSAT 1 02 Mar 03:03:51 03:06:24 16° 305° (NW) 03:08:57 437.445
ITAMSAT 1 02 Mar 03:12:34 03:17:14 31° 94° (E) 03:21:50 435.822/435.867
CUBESAT XI-V 02 Mar 03:41:57 03:46:23 47° 67° (ENE) 03:50:50 437.345
Gurwin Techsat 1B 02 Mar 03:55:11 04:00:02 36° 299° (WNW) 04:04:51 435.225
KKS-1 02 Mar 03:56:44 04:01:11 87° 254° (WSW) 04:05:41 437.445
SO-50 02 Mar 04:04:16 04:08:34 39° 31° (NNE) 04:12:47 436.795
MOZHAYETS 4 02 Mar 04:06:06 04:10:02 27° 267° (W) 04:13:59
Oscar 19 02 Mar 04:07:18 04:10:56 20° 307° (NW) 04:14:33 437.125/150
STARS 02 Mar 04:15:38 04:20:00 72° 72° (ENE) 04:24:25 437.465
AO-7 02 Mar 04:16:13 04:24:29 62° 105° (ESE) 04:32:41 .
M-CUBED/EXP-1 PRIME 02 Mar 04:30:14 04:33:29 78° 67° (ENE) 04:36:52 437.505
O/OREOS (USA 219) 02 Mar 04:37:29 04:38:46 11° 23° (NNE) 04:40:02 437.305
AO-85 02 Mar 04:41:50 04:46:12 78° 316° (NW) 04:50:18 145.980
STRAND 1 02 Mar 04:42:36 04:44:56 13° 46° (NE) 04:47:16 437.568
ITAMSAT 1 02 Mar 04:51:51 04:56:56 51° 295° (WNW) 05:01:58 435.822/435.867
BEESAT 2 02 Mar 05:07:43 05:08:37 11° 110° (ESE) 05:09:31 435.950
RS-15 02 Mar 05:13:54 05:16:15 11° 274° (W) 05:18:36 29.354- 29.394
CUBESAT XI-V 02 Mar 05:19:59 05:23:58 28° 267° (W) 05:27:58 437.345
KKS-1 02 Mar 05:36:18 05:38:27 13° 274° (W) 05:40:37 437.445
KAITUO 1B 02 Mar 05:41:05 05:42:27 12° 86° (E) 05:43:49 145.475/437.950
SO-50 02 Mar 05:44:47 05:49:13 54° 232° (SW) 05:53:35 436.795
BEESAT 3 02 Mar 05:51:18 05:55:06 50° 127° (SE) 05:58:59 437.485
DOVE 4 02 Mar 05:53:31 05:57:36 27° 93° (E) 06:01:49 437.250
STARS 02 Mar 05:53:58 05:56:52 17° 271° (W) 05:59:48 437.465
XW-2F 02 Mar 05:54:01 05:56:43 18° 90° (E) 05:59:23 145.980 - 146.000
XW-2D 02 Mar 06:01:49 06:04:55 23° 93° (E) 06:07:57 145.860 - 145.880
XW-2B 02 Mar 06:06:56 06:10:08 24° 93° (E) 06:13:17 145.730 - 145.750
NUDT-PHONESAT 02 Mar 06:08:02 06:10:59 21° 92° (E) 06:13:54 437.300
M-CUBED/EXP-1 PRIME 02 Mar 06:08:30 06:08:33 10° 267° (W) 06:08:37 437.505
AO-7 02 Mar 06:09:20 06:17:05 45° 307° (NW) 06:24:47 .
O/OREOS (USA 219) 02 Mar 06:15:31 06:19:39 32° 47° (NE) 06:23:47 437.305
XW-2C 02 Mar 06:15:41 06:19:06 30° 95° (E) 06:22:29 145.795 - 145.815
STRAND 1 02 Mar 06:18:05 06:23:05 55° 67° (ENE) 06:28:08 437.568
ISS 02 Mar 06:23:41 06:24:46 11° 140° (SE) 06:25:50 437.550
AO-85 02 Mar 06:23:43 06:27:10 24° 337° (NNW) 06:30:28 145.980
ITAMSAT 1 02 Mar 06:33:07 06:35:19 13° 315° (NW) 06:37:30 435.822/435.867
Tancredo 1 02 Mar 06:34:14 06:35:54 13° 143° (SE) 06:37:35 437.200
LilacSat-2 02 Mar 06:38:17 06:42:05 52° 100° (E) 06:45:49 437.200
CUTE-I 02 Mar 06:38:58 06:44:11 47° 99° (E) 06:49:21 437.470
BEESAT 2 02 Mar 06:41:39 06:45:36 65° 129° (SE) 06:49:37 435.950
HO-68 02 Mar 06:49:35 06:54:38 20° 86° (E) 06:59:39 435.675
CUBEBUG 2 02 Mar 07:08:12 07:08:53 10° 81° (E) 07:09:34 437.445
KAITUO 1B 02 Mar 07:13:15 07:17:03 84° 288° (WNW) 07:20:48 145.475/437.950
PRISM 02 Mar 07:16:32 07:18:18 13° 52° (NE) 07:20:03 437.425
CUTE 1.7 + AOD 2 02 Mar 07:26:02 07:29:30 24° 92° (E) 07:32:57 437.475
XW-2A 02 Mar 07:26:48 07:29:53 29° 96° (E) 07:32:58 145.665 - 145.685
XW-2F 02 Mar 07:27:27 07:31:11 52° 289° (WNW) 07:34:52 145.980 - 146.000
BEESAT 3 02 Mar 07:29:13 07:32:53 35° 328° (NNW) 07:36:36 437.485
DOVE 4 02 Mar 07:30:54 07:35:32 53° 291° (WNW) 07:40:24 437.250
TIGRISAT 02 Mar 07:32:34 07:33:19 10° 47° (NE) 07:34:05 435.000
UWE-3 02 Mar 07:33:08 07:34:37 11° 82° (E) 07:36:07 435.000/436.395/437.385
UNISAT 6 02 Mar 07:33:21 07:34:42 11° 48° (NE) 07:36:04 437.425
XW-2D 02 Mar 07:35:40 07:39:17 41° 292° (WNW) 07:42:52 145.860 - 145.880
XW-2B 02 Mar 07:40:53 07:44:28 38° 292° (WNW) 07:48:00 145.730 - 145.750
NUDT-PHONESAT 02 Mar 07:41:32 07:45:07 43° 291° (WNW) 07:48:41 437.300
AAUSAT CUBESAT 2 02 Mar 07:46:03 07:48:23 15° 87° (E) 07:50:42 437.432
XW-2C 02 Mar 07:49:54 07:53:19 31° 294° (WNW) 07:56:42 145.795 - 145.815
FO-29 02 Mar 07:51:09 07:56:36 22° 43° (NE) 08:02:07 435.910
O/OREOS (USA 219) 02 Mar 07:54:50 07:59:16 48° 248° (WSW) 08:03:41 437.305
ISS 02 Mar 07:57:29 08:00:33 36° 159° (SSE) 08:03:38 437.550
STRAND 1 02 Mar 07:58:09 08:02:35 28° 267° (W) 08:07:02 437.568
AO-7 02 Mar 08:02:42 08:07:56 19° 332° (NNW) 08:13:10 .
AO-85 02 Mar 08:06:09 08:08:50 17° 2° (N) 08:11:27 145.980
Tancredo 1 02 Mar 08:08:28 08:11:33 40° 162° (SSE) 08:14:38 437.200
SEEDS 02 Mar 08:12:20 08:16:22 45° 98° (E) 08:20:22 437.485
LilacSat-2 02 Mar 08:13:13 08:16:04 20° 300° (WNW) 08:18:54 437.200
CUTE-I 02 Mar 08:19:15 08:24:08 36° 299° (WNW) 08:29:01 437.470
BEESAT 2 02 Mar 08:20:07 08:23:41 30° 331° (NNW) 08:27:19 435.950
Oscar 11 02 Mar 08:25:13 08:27:53 16° 87° (E) 08:30:33 .
AO-73 02 Mar 08:25:17 08:28:31 19° 88° (E) 08:31:42 145.935
YUBILEINY 02 Mar 08:34:36 08:40:44 22° 73° (ENE) 08:46:51 435.215
HO-68 02 Mar 08:36:19 08:43:32 80° 107° (ESE) 08:50:42 435.675
CUBEBUG 2 02 Mar 08:41:44 08:46:29 63° 101° (E) 08:51:10 437.445
PRISM 02 Mar 08:48:51 08:52:54 75° 72° (ENE) 08:56:59 437.425
KAITUO 1B 02 Mar 08:48:56 08:50:28 12° 305° (NW) 08:52:00 145.475/437.950
XW-2A 02 Mar 08:59:39 09:02:37 27° 295° (WNW) 09:05:35 145.665 - 145.685
CUTE 1.7 + AOD 2 02 Mar 09:01:31 09:05:34 46° 292° (WNW) 09:09:35 437.475
TIGRISAT 02 Mar 09:04:31 09:08:56 48° 67° (ENE) 09:13:27 435.000
UNISAT 6 02 Mar 09:05:56 09:10:24 52° 68° (ENE) 09:14:58 437.425
UWE-3 02 Mar 09:07:17 09:11:59 71° 102° (ESE) 09:16:34 435.000/436.395/437.385
BEESAT 3 02 Mar 09:08:49 09:11:32 17° 351° (N) 09:14:17 437.485
DOVE 4 02 Mar 09:10:46 09:12:20 12° 310° (NW) 09:13:56 437.250
ZACube-1 02 Mar 09:15:33 09:20:03 54° 100° (E) 09:24:26 437.345
POLYITAN 1 02 Mar 09:18:48 09:19:58 11° 50° (NE) 09:21:08 437.675
AAUSAT CUBESAT 2 02 Mar 09:20:15 09:24:23 76° 288° (WNW) 09:28:29 437.432
QB50P2 02 Mar 09:21:27 09:23:07 12° 51° (NE) 09:24:48 145.880/145.840
FO-29 02 Mar 09:32:45 09:40:12 61° 65° (ENE) 09:47:57 435.910
ISS 02 Mar 09:33:31 09:36:48 63° 178° (S) 09:40:05 437.550
Tancredo 1 02 Mar 09:44:23 09:47:37 63° 180° (S) 09:50:49 437.200
AO-85 02 Mar 09:46:58 09:50:25 28° 27° (NNE) 09:53:50 145.980
SEEDS 02 Mar 09:48:25 09:51:53 26° 298° (WNW) 09:55:20 437.485
AO-7 02 Mar 09:54:32 09:57:34 12° 360° (N) 10:00:37 .
BEESAT 2 02 Mar 09:59:55 10:02:37 17° 355° (N) 10:05:20 435.950
Oscar 11 02 Mar 10:00:13 10:04:35 76° 286° (WNW) 10:08:52 .
AO-73 02 Mar 10:00:42 10:05:15 67° 288° (WNW) 10:09:40 145.935
DELFI C3 02 Mar 10:02:36 10:06:23 43° 99° (E) 10:10:09 145.870
DUCHIFAT 1 02 Mar 10:14:41 10:18:08 25° 61° (ENE) 10:21:38 145.980
CUBEBUG 2 02 Mar 10:18:55 10:22:44 24° 301° (WNW) 10:26:31 437.445
PRISM 02 Mar 10:26:22 10:28:42 15° 271° (W) 10:31:03 437.425
